EJU97HA LEPA-LPPT

Flight info

Callsign EJU97HA
Flight time 1h 43m
Altitude 35000
Route EPAMA N733 CJN N975 CCS DCT UPULO
Aircraft A320/M-SDE2E3FGHIJ1RWXYZ/LB1

Departure

Time 2026-05-06 20:20
Airport Palma de Mallorca Airport (LEPA)

Arrival

Time 2026-05-06 22:03
Airport Lisbon Humberto Delgado Airport (LPPT)
Time Latitude Longitude Altitude Speed Heading
2026-05-06 19:51 39.54757 2.73632 37 ft 0 kts 58°
2026-05-06 20:13 39.54754 2.73625 38 ft 4 kts 58°
2026-05-06 20:13 39.54742 2.73600 36 ft 4 kts 60°
2026-05-06 20:13 39.54735 2.73570 34 ft 4 kts 111°
2026-05-06 20:14 39.54751 2.73545 35 ft 4 kts 149°
2026-05-06 20:14 39.54771 2.73530 38 ft 1 kts 149°
2026-05-06 20:14 39.54772 2.73530 36 ft 0 kts 149°
2026-05-06 20:16 39.54754 2.73544 36 ft 6 kts 149°
2026-05-06 20:16 39.54698 2.73587 38 ft 12 kts 149°
2026-05-06 20:17 39.54606 2.73633 38 ft 15 kts 160°
2026-05-06 20:17 39.54516 2.73701 37 ft 15 kts 149°
2026-05-06 20:17 39.54492 2.73719 38 ft 0 kts 149°
2026-05-06 20:18 39.54491 2.73720 38 ft 1 kts 149°
2026-05-06 20:19 39.54466 2.73740 38 ft 7 kts 149°
2026-05-06 20:19 39.54425 2.73795 38 ft 11 kts 97°
2026-05-06 20:19 39.54501 2.73964 38 ft 44 kts 58°
2026-05-06 20:19 39.54788 2.74572 38 ft 111 kts 58°
2026-05-06 20:20 39.55284 2.75631 86 ft 158 kts 59°
2026-05-06 20:20 39.55869 2.76893 595 ft 167 kts 59°
2026-05-06 20:20 39.56470 2.78210 1260 ft 171 kts 60°
2026-05-06 20:20 39.56902 2.79159 1633 ft 177 kts 60°
2026-05-06 20:21 39.57564 2.80617 1881 ft 197 kts 60°
2026-05-06 20:21 39.58239 2.82104 2201 ft 212 kts 60°
2026-05-06 20:21 39.58994 2.83761 2754 ft 216 kts 60°
2026-05-06 20:21 39.59764 2.85451 3326 ft 220 kts 60°
2026-05-06 20:22 39.60547 2.87167 4039 ft 222 kts 60°
2026-05-06 20:22 39.61337 2.88898 4738 ft 224 kts 60°
2026-05-06 20:22 39.62254 2.90545 5400 ft 228 kts 40°
2026-05-06 20:22 39.63701 2.91346 6051 ft 232 kts
2026-05-06 20:23 39.65259 2.90870 6709 ft 234 kts 326°
2026-05-06 20:23 39.66317 2.89302 7348 ft 235 kts 295°
2026-05-06 20:23 39.66944 2.87345 8043 ft 235 kts 290°
2026-05-06 20:23 39.67462 2.85327 8744 ft 237 kts 286°
2026-05-06 20:24 39.67886 2.83254 9444 ft 238 kts 282°
2026-05-06 20:24 39.68209 2.81133 10113 ft 240 kts 278°
2026-05-06 20:24 39.68306 2.78936 10536 ft 253 kts 266°
2026-05-06 20:24 39.68198 2.76551 10744 ft 277 kts 266°
2026-05-06 20:25 39.68067 2.73988 10930 ft 300 kts 266°
2026-05-06 20:25 39.67923 2.71185 11126 ft 322 kts 266°
2026-05-06 20:25 39.67769 2.68246 11650 ft 330 kts 266°
2026-05-06 20:25 39.67613 2.65254 12359 ft 333 kts 265°
2026-05-06 20:26 39.67457 2.62245 13087 ft 335 kts 265°
2026-05-06 20:26 39.67299 2.59212 13813 ft 337 kts 265°
2026-05-06 20:26 39.67141 2.56165 14468 ft 339 kts 265°
2026-05-06 20:26 39.66978 2.53103 15075 ft 341 kts 265°
2026-05-06 20:27 39.66813 2.50022 15710 ft 343 kts 265°
2026-05-06 20:27 39.66646 2.46930 16361 ft 345 kts 265°
2026-05-06 20:27 39.66478 2.43808 16973 ft 347 kts 265°
2026-05-06 20:27 39.66311 2.40675 17579 ft 349 kts 265°
2026-05-06 20:28 39.66142 2.37518 18171 ft 352 kts 265°
2026-05-06 20:28 39.65968 2.34349 18698 ft 353 kts 265°
2026-05-06 20:28 39.65793 2.31161 19219 ft 355 kts 265°
2026-05-06 20:28 39.65617 2.27957 19737 ft 357 kts 265°
2026-05-06 20:29 39.65439 2.24730 20241 ft 359 kts 265°
2026-05-06 20:29 39.65258 2.21494 20737 ft 361 kts 265°
2026-05-06 20:29 39.65077 2.18239 21218 ft 363 kts 265°
2026-05-06 20:29 39.64893 2.14970 21695 ft 365 kts 264°
2026-05-06 20:30 39.64704 2.11680 22171 ft 367 kts 264°
2026-05-06 20:30 39.64330 2.05091 23092 ft 371 kts 264°
2026-05-06 20:30 39.64139 2.01746 23537 ft 373 kts 264°
2026-05-06 20:31 39.63945 1.98387 23921 ft 374 kts 264°
2026-05-06 20:31 39.63751 1.95009 24326 ft 375 kts 264°
2026-05-06 20:31 39.63557 1.91632 24728 ft 376 kts 264°
2026-05-06 20:31 39.63360 1.88243 25118 ft 376 kts 264°
2026-05-06 20:32 39.63175 1.85099 25490 ft 377 kts 263°
2026-05-06 20:32 39.62977 1.81708 25878 ft 378 kts 263°
2026-05-06 20:32 39.62779 1.78311 26257 ft 378 kts 263°
2026-05-06 20:32 39.62579 1.74903 26643 ft 379 kts 263°
2026-05-06 20:33 39.62375 1.71488 27019 ft 380 kts 263°
2026-05-06 20:33 39.62169 1.68078 27386 ft 380 kts 263°
2026-05-06 20:33 39.62032 1.65814 27625 ft 381 kts 263°
2026-05-06 20:33 39.61822 1.62377 27987 ft 382 kts 263°
2026-05-06 20:34 39.61611 1.58942 28350 ft 383 kts 263°
2026-05-06 20:34 39.61397 1.55495 28705 ft 384 kts 262°
2026-05-06 20:34 39.61182 1.52043 29049 ft 385 kts 262°
2026-05-06 20:34 39.60968 1.48585 29384 ft 386 kts 262°
2026-05-06 20:35 39.60754 1.45116 29707 ft 386 kts 262°
2026-05-06 20:35 39.60540 1.41640 30013 ft 387 kts 262°
2026-05-06 20:35 39.60324 1.38152 30279 ft 388 kts 262°
2026-05-06 20:35 39.60115 1.34657 30523 ft 390 kts 262°
2026-05-06 20:36 39.59920 1.31148 30808 ft 390 kts 263°
2026-05-06 20:36 39.59732 1.27654 31165 ft 388 kts 263°
2026-05-06 20:36 39.59544 1.24179 31523 ft 386 kts 263°
2026-05-06 20:36 39.59353 1.20717 31880 ft 384 kts 262°
2026-05-06 20:37 39.59159 1.17268 32235 ft 382 kts 262°
2026-05-06 20:37 39.58964 1.13844 32595 ft 381 kts 262°
2026-05-06 20:37 39.58768 1.10424 32942 ft 379 kts 262°
2026-05-06 20:37 39.58574 1.07024 33292 ft 377 kts 262°
2026-05-06 20:38 39.58378 1.03643 33650 ft 376 kts 262°
2026-05-06 20:38 39.58182 1.00271 33992 ft 374 kts 262°
2026-05-06 20:38 39.57987 0.96959 34259 ft 373 kts 262°
2026-05-06 20:38 39.57790 0.93606 34474 ft 374 kts 262°
2026-05-06 20:39 39.57591 0.90249 34675 ft 374 kts 262°
2026-05-06 20:39 39.57390 0.86880 34869 ft 375 kts 262°
2026-05-06 20:39 39.57188 0.83507 34955 ft 374 kts 262°
2026-05-06 20:40 39.56785 0.76822 34969 ft 371 kts 262°
2026-05-06 20:40 39.56379 0.70157 34972 ft 371 kts 262°
2026-05-06 20:41 39.55970 0.63458 34972 ft 377 kts 262°
2026-05-06 20:41 39.55545 0.56592 34967 ft 385 kts 262°
2026-05-06 20:42 39.55112 0.49666 34968 ft 386 kts 262°
2026-05-06 20:42 39.54685 0.42731 34970 ft 386 kts 262°
2026-05-06 20:43 39.54245 0.35794 34975 ft 387 kts 262°
2026-05-06 20:43 39.53799 0.28845 34969 ft 387 kts 262°
2026-05-06 20:44 39.53351 0.21951 34970 ft 387 kts 262°
2026-05-06 20:44 39.52898 0.15012 34968 ft 387 kts 262°
2026-05-06 20:45 39.52434 0.08062 34965 ft 387 kts 262°
2026-05-06 20:45 39.51972 0.01110 34966 ft 388 kts 262°
2026-05-06 20:46 39.51510 -0.05841 34966 ft 388 kts 262°
2026-05-06 20:46 39.51038 -0.12804 34969 ft 388 kts 262°
2026-05-06 20:47 39.50562 -0.19769 34971 ft 388 kts 262°
2026-05-06 20:47 39.50084 -0.26693 34973 ft 389 kts 262°
2026-05-06 20:48 39.49593 -0.33671 34973 ft 389 kts 262°
2026-05-06 20:48 39.49101 -0.40649 34970 ft 389 kts 262°
2026-05-06 20:49 39.49185 -0.47681 34966 ft 397 kts 277°
2026-05-06 20:49 39.51267 -0.54394 34965 ft 410 kts 293°
2026-05-06 20:50 39.54115 -0.60800 34957 ft 411 kts 293°
2026-05-06 20:50 39.56954 -0.67233 34960 ft 412 kts 293°
2026-05-06 20:51 39.59793 -0.73683 34971 ft 412 kts 293°
2026-05-06 20:51 39.62631 -0.80149 34973 ft 413 kts 293°
2026-05-06 20:52 39.65474 -0.86627 34995 ft 413 kts 293°
2026-05-06 20:52 39.68318 -0.93123 34998 ft 414 kts 293°
2026-05-06 20:53 39.71135 -0.99584 35002 ft 414 kts 294°
2026-05-06 20:53 39.73971 -1.06095 34997 ft 414 kts 294°
2026-05-06 20:54 39.76808 -1.12628 34996 ft 415 kts 294°
2026-05-06 20:54 39.79650 -1.19150 34999 ft 415 kts 294°
2026-05-06 20:55 39.82499 -1.25692 34992 ft 415 kts 294°
2026-05-06 20:55 39.85315 -1.32196 34982 ft 416 kts 294°
2026-05-06 20:56 39.88153 -1.38756 34982 ft 417 kts 294°
2026-05-06 20:56 39.90998 -1.45352 34972 ft 417 kts 294°
2026-05-06 20:57 39.93835 -1.51951 34968 ft 418 kts 294°
2026-05-06 20:57 39.96673 -1.58566 34965 ft 419 kts 294°
2026-05-06 20:58 39.99522 -1.65221 34963 ft 420 kts 294°
2026-05-06 20:58 40.02372 -1.71881 34959 ft 421 kts 294°
2026-05-06 20:59 40.05223 -1.78561 34954 ft 422 kts 294°
2026-05-06 20:59 40.08080 -1.85275 34951 ft 423 kts 294°
2026-05-06 21:00 40.10933 -1.92004 34948 ft 424 kts 295°
2026-05-06 21:00 40.13773 -1.98710 34947 ft 425 kts 295°
2026-05-06 21:01 40.16642 -2.05486 34945 ft 426 kts 295°
2026-05-06 21:01 40.19533 -2.12258 34938 ft 427 kts 295°
2026-05-06 21:02 40.22423 -2.19046 34935 ft 427 kts 295°
2026-05-06 21:02 40.25286 -2.25864 34936 ft 428 kts 295°
2026-05-06 21:03 40.28143 -2.32701 34939 ft 428 kts 295°
2026-05-06 21:03 40.30994 -2.39543 34942 ft 428 kts 295°
2026-05-06 21:04 40.33843 -2.46389 34942 ft 428 kts 295°
2026-05-06 21:04 40.35778 -2.53635 34936 ft 419 kts 276°
2026-05-06 21:05 40.35686 -2.61193 34929 ft 415 kts 257°
2026-05-06 21:05 40.34177 -2.68489 34917 ft 415 kts 254°
2026-05-06 21:06 40.32595 -2.75742 34911 ft 415 kts 254°
2026-05-06 21:06 40.31007 -2.83032 34910 ft 416 kts 254°
2026-05-06 21:07 40.29414 -2.90319 34906 ft 416 kts 254°
2026-05-06 21:07 40.27823 -2.97553 34912 ft 417 kts 254°
2026-05-06 21:08 40.26216 -3.04849 34912 ft 417 kts 254°
2026-05-06 21:08 40.24603 -3.12148 34912 ft 417 kts 254°
2026-05-06 21:09 40.22984 -3.19433 34918 ft 417 kts 254°
2026-05-06 21:09 40.21355 -3.26733 34917 ft 418 kts 254°
2026-05-06 21:10 40.19732 -3.34026 34917 ft 418 kts 254°
2026-05-06 21:10 40.18106 -3.41315 34917 ft 418 kts 254°
2026-05-06 21:11 40.16469 -3.48606 34920 ft 418 kts 253°
2026-05-06 21:11 40.14826 -3.55884 34918 ft 418 kts 253°
2026-05-06 21:12 40.13177 -3.63174 34918 ft 418 kts 253°
2026-05-06 21:12 40.11535 -3.70447 34921 ft 418 kts 253°
2026-05-06 21:13 40.09894 -3.77683 34920 ft 418 kts 253°
2026-05-06 21:13 40.08219 -3.85008 34917 ft 418 kts 253°
2026-05-06 21:14 40.06552 -3.92276 34912 ft 418 kts 253°
2026-05-06 21:14 40.04882 -3.99531 34906 ft 418 kts 253°
2026-05-06 21:15 40.03217 -4.06759 34903 ft 418 kts 253°
2026-05-06 21:15 40.01541 -4.14014 34905 ft 418 kts 253°
2026-05-06 21:16 39.99857 -4.21270 34904 ft 418 kts 253°
2026-05-06 21:16 39.98165 -4.28536 34908 ft 418 kts 253°
2026-05-06 21:17 39.96481 -4.35794 34908 ft 418 kts 254°
2026-05-06 21:17 39.94967 -4.43115 34906 ft 418 kts 255°
2026-05-06 21:18 39.93531 -4.50446 34908 ft 418 kts 255°
2026-05-06 21:18 39.92067 -4.57783 34903 ft 418 kts 255°
2026-05-06 21:19 39.90565 -4.65093 34902 ft 418 kts 254°
2026-05-06 21:19 39.89061 -4.72395 34900 ft 417 kts 254°
2026-05-06 21:20 39.87566 -4.79682 34901 ft 417 kts 254°
2026-05-06 21:20 39.86064 -4.86980 34900 ft 417 kts 254°
2026-05-06 21:21 39.84551 -4.94254 34897 ft 417 kts 254°
2026-05-06 21:21 39.83046 -5.01478 34896 ft 416 kts 254°
2026-05-06 21:22 39.81542 -5.08676 34895 ft 416 kts 254°
2026-05-06 21:22 39.80019 -5.15940 34892 ft 416 kts 254°
2026-05-06 21:23 39.78498 -5.23171 34885 ft 416 kts 253°
2026-05-06 21:23 39.76960 -5.30430 34884 ft 415 kts 253°
2026-05-06 21:24 39.75431 -5.37663 34880 ft 415 kts 253°
2026-05-06 21:24 39.73902 -5.44906 34876 ft 415 kts 253°
2026-05-06 21:25 39.72362 -5.52135 34874 ft 415 kts 253°
2026-05-06 21:25 39.70848 -5.59213 34875 ft 401 kts 253°
2026-05-06 21:26 39.69358 -5.66162 34875 ft 399 kts 253°
2026-05-06 21:26 39.67863 -5.73107 34875 ft 399 kts 253°
2026-05-06 21:27 39.66363 -5.80045 34875 ft 399 kts 253°
2026-05-06 21:27 39.64871 -5.86934 34870 ft 399 kts 253°
2026-05-06 21:28 39.63371 -5.93855 34873 ft 399 kts 253°
2026-05-06 21:28 39.61862 -6.00781 34867 ft 399 kts 252°
2026-05-06 21:29 39.60349 -6.07698 34864 ft 399 kts 252°
2026-05-06 21:29 39.59087 -6.13449 34863 ft 399 kts 252°
2026-05-06 21:30 39.57566 -6.20356 34861 ft 399 kts 252°
2026-05-06 21:30 39.56041 -6.27273 34862 ft 399 kts 252°
2026-05-06 21:31 39.54507 -6.34193 34864 ft 400 kts 252°
2026-05-06 21:31 39.52966 -6.41118 34867 ft 400 kts 252°
2026-05-06 21:32 39.50805 -6.47718 34866 ft 398 kts 243°
2026-05-06 21:32 39.48426 -6.54083 34171 ft 388 kts 244°
2026-05-06 21:32 39.47336 -6.57253 33763 ft 384 kts 245°
2026-05-06 21:33 39.46279 -6.60405 33273 ft 380 kts 245°
2026-05-06 21:33 39.45250 -6.63492 32794 ft 377 kts 245°
2026-05-06 21:33 39.44211 -6.66588 32312 ft 373 kts 245°
2026-05-06 21:33 39.43162 -6.69690 31839 ft 370 kts 244°
2026-05-06 21:34 39.42139 -6.72687 31372 ft 367 kts 244°
2026-05-06 21:34 39.41105 -6.75690 30904 ft 364 kts 244°
2026-05-06 21:34 39.40076 -6.78667 30458 ft 361 kts 244°
2026-05-06 21:34 39.39053 -6.81624 30019 ft 359 kts 244°
2026-05-06 21:35 39.38037 -6.84560 29511 ft 356 kts 244°
2026-05-06 21:35 39.37031 -6.87469 28983 ft 354 kts 244°
2026-05-06 21:35 39.36031 -6.90361 28454 ft 352 kts 244°
2026-05-06 21:35 39.35036 -6.93237 27959 ft 350 kts 244°
2026-05-06 21:36 39.34043 -6.96099 27456 ft 348 kts 244°
2026-05-06 21:36 39.33067 -6.98910 26958 ft 346 kts 244°
2026-05-06 21:36 39.32079 -7.01754 26471 ft 344 kts 244°
2026-05-06 21:36 39.31101 -7.04568 26001 ft 343 kts 244°
2026-05-06 21:37 39.30128 -7.07370 25532 ft 342 kts 244°
2026-05-06 21:37 39.29156 -7.10162 25077 ft 340 kts 244°
2026-05-06 21:37 39.28187 -7.12940 24877 ft 340 kts 244°
2026-05-06 21:37 39.27213 -7.15730 24895 ft 341 kts 244°
2026-05-06 21:38 39.26239 -7.18526 24897 ft 342 kts 244°
2026-05-06 21:38 39.25260 -7.21325 24898 ft 342 kts 244°
2026-05-06 21:38 39.24280 -7.24123 24899 ft 342 kts 244°
2026-05-06 21:38 39.23300 -7.26917 24899 ft 343 kts 244°
2026-05-06 21:39 39.22317 -7.29721 24905 ft 342 kts 244°
2026-05-06 21:39 39.21336 -7.32516 24903 ft 342 kts 244°
2026-05-06 21:39 39.20355 -7.35318 24905 ft 342 kts 244°
2026-05-06 21:39 39.19377 -7.38113 24908 ft 342 kts 244°
2026-05-06 21:40 39.18398 -7.40904 24903 ft 342 kts 244°
2026-05-06 21:40 39.17414 -7.43706 24902 ft 342 kts 244°
2026-05-06 21:40 39.16430 -7.46496 24906 ft 342 kts 243°
2026-05-06 21:40 39.15445 -7.49286 24916 ft 342 kts 244°
2026-05-06 21:41 39.14457 -7.52079 24916 ft 342 kts 243°
2026-05-06 21:41 39.13704 -7.54990 24917 ft 346 kts 260°
2026-05-06 21:41 39.13791 -7.58093 24915 ft 352 kts 277°
2026-05-06 21:41 39.14306 -7.61182 24924 ft 353 kts 279°
2026-05-06 21:42 39.14863 -7.64268 24924 ft 354 kts 279°
2026-05-06 21:42 39.15422 -7.67355 24922 ft 354 kts 279°
2026-05-06 21:42 39.15981 -7.70444 24920 ft 354 kts 279°
2026-05-06 21:42 39.16539 -7.73534 24926 ft 354 kts 279°
2026-05-06 21:43 39.17098 -7.76629 24926 ft 354 kts 279°
2026-05-06 21:43 39.17654 -7.79715 24931 ft 354 kts 279°
2026-05-06 21:43 39.18209 -7.82807 24929 ft 354 kts 279°
2026-05-06 21:43 39.18762 -7.85899 24926 ft 354 kts 279°
2026-05-06 21:44 39.19313 -7.88985 24932 ft 354 kts 279°
2026-05-06 21:44 39.19865 -7.92083 24932 ft 354 kts 279°
2026-05-06 21:44 39.20414 -7.95177 24930 ft 354 kts 279°
2026-05-06 21:44 39.20955 -7.98236 24938 ft 354 kts 279°
2026-05-06 21:45 39.21502 -8.01332 24936 ft 354 kts 279°
2026-05-06 21:45 39.22055 -8.04464 24933 ft 354 kts 279°
2026-05-06 21:45 39.22414 -8.07549 24935 ft 349 kts 265°
2026-05-06 21:45 39.21950 -8.10569 24935 ft 343 kts 245°
2026-05-06 21:46 39.20864 -8.13355 24938 ft 343 kts 240°
2026-05-06 21:46 39.19710 -8.16046 24937 ft 343 kts 239°
2026-05-06 21:46 39.18548 -8.18729 24939 ft 343 kts 239°
2026-05-06 21:46 39.17383 -8.21415 24943 ft 343 kts 239°
2026-05-06 21:47 39.16222 -8.24086 24724 ft 341 kts 239°
2026-05-06 21:47 39.15079 -8.26710 24271 ft 339 kts 239°
2026-05-06 21:47 39.13910 -8.29388 23842 ft 338 kts 239°
2026-05-06 21:47 39.12781 -8.31965 23390 ft 337 kts 239°
2026-05-06 21:48 39.11624 -8.34597 22899 ft 336 kts 239°
2026-05-06 21:48 39.10473 -8.37208 22367 ft 336 kts 239°
2026-05-06 21:48 39.09315 -8.39829 21833 ft 337 kts 239°
2026-05-06 21:48 39.08129 -8.42428 21305 ft 337 kts 234°
2026-05-06 21:49 39.06554 -8.44646 20798 ft 337 kts 221°
2026-05-06 21:49 39.04757 -8.46587 20282 ft 337 kts 219°
2026-05-06 21:49 39.02944 -8.48498 19783 ft 338 kts 219°
2026-05-06 21:49 39.01120 -8.50412 19288 ft 339 kts 219°
2026-05-06 21:50 38.99293 -8.52326 18805 ft 339 kts 219°
2026-05-06 21:50 38.97493 -8.54207 18342 ft 340 kts 219°
2026-05-06 21:50 38.95666 -8.56213 17802 ft 340 kts 226°
2026-05-06 21:50 38.94085 -8.58471 17270 ft 340 kts 229°
2026-05-06 21:51 38.92539 -8.60775 16739 ft 340 kts 229°
2026-05-06 21:51 38.90996 -8.63081 16225 ft 341 kts 229°
2026-05-06 21:51 38.89450 -8.65391 15707 ft 341 kts 229°
2026-05-06 21:51 38.87907 -8.67695 15226 ft 341 kts 229°
2026-05-06 21:52 38.86363 -8.69994 14782 ft 339 kts 229°
2026-05-06 21:52 38.84823 -8.72283 14339 ft 338 kts 229°
2026-05-06 21:52 38.83295 -8.74553 13913 ft 336 kts 229°
2026-05-06 21:52 38.81768 -8.76816 13449 ft 335 kts 229°
2026-05-06 21:53 38.80253 -8.79060 12971 ft 333 kts 229°
2026-05-06 21:53 38.78738 -8.81306 12503 ft 331 kts 229°
2026-05-06 21:53 38.77234 -8.83539 12049 ft 330 kts 229°
2026-05-06 21:53 38.75760 -8.85735 11545 ft 329 kts 229°
2026-05-06 21:54 38.74253 -8.87984 11039 ft 329 kts 229°
2026-05-06 21:54 38.72780 -8.90186 10552 ft 329 kts 229°
2026-05-06 21:54 38.71281 -8.92435 10048 ft 328 kts 229°
2026-05-06 21:54 38.69796 -8.94660 9550 ft 327 kts 229°
2026-05-06 21:55 38.68221 -8.96689 9023 ft 326 kts 220°
2026-05-06 21:55 38.66483 -8.98549 8508 ft 325 kts 219°
2026-05-06 21:55 38.64744 -9.00378 7999 ft 323 kts 219°
2026-05-06 21:55 38.63005 -9.02205 7488 ft 322 kts 219°
2026-05-06 21:56 38.61279 -9.04015 6992 ft 320 kts 219°
2026-05-06 21:56 38.59580 -9.05799 6494 ft 309 kts 221°
2026-05-06 21:56 38.58158 -9.07763 5988 ft 296 kts 234°
2026-05-06 21:56 38.57142 -9.09973 5613 ft 279 kts 245°
2026-05-06 21:57 38.56364 -9.12129 5481 ft 256 kts 245°
2026-05-06 21:57 38.55628 -9.14106 5331 ft 237 kts 245°
2026-05-06 21:57 38.55156 -9.16058 4952 ft 229 kts 267°
2026-05-06 21:57 38.55364 -9.18020 4798 ft 218 kts 292°
2026-05-06 21:58 38.56142 -9.19585 4671 ft 205 kts 316°
2026-05-06 21:58 38.57303 -9.20571 4500 ft 200 kts 339°
2026-05-06 21:58 38.58659 -9.20900 4287 ft 198 kts 358°
2026-05-06 21:58 38.60031 -9.20949 4033 ft 198 kts 356°
2026-05-06 21:59 38.61425 -9.21010 3686 ft 203 kts 357°
2026-05-06 21:59 38.62865 -9.21076 3286 ft 211 kts 356°
2026-05-06 21:59 38.64320 -9.20950 2985 ft 210 kts 16°
2026-05-06 21:59 38.65597 -9.20293 2737 ft 203 kts 21°
2026-05-06 22:00 38.66898 -9.19592 2467 ft 189 kts 19°
2026-05-06 22:00 38.68060 -9.18969 2236 ft 173 kts 19°
2026-05-06 22:00 38.69105 -9.18410 2017 ft 154 kts 19°
2026-05-06 22:00 38.70050 -9.17907 1823 ft 141 kts 18°
2026-05-06 22:01 38.70946 -9.17430 1617 ft 137 kts 19°
2026-05-06 22:01 38.71815 -9.16967 1444 ft 135 kts 19°
2026-05-06 22:01 38.72690 -9.16501 1228 ft 138 kts 18°
2026-05-06 22:01 38.73566 -9.16034 1033 ft 136 kts 19°
2026-05-06 22:02 38.74436 -9.15570 850 ft 135 kts 18°
2026-05-06 22:02 38.75313 -9.15101 673 ft 137 kts 17°
2026-05-06 22:02 38.76180 -9.14638 479 ft 135 kts 16°
2026-05-06 22:02 38.77046 -9.14179 364 ft 128 kts 18°
2026-05-06 22:03 38.77744 -9.13807 365 ft 86 kts 23°
2026-05-06 22:03 38.78189 -9.13557 371 ft 52 kts 29°
2026-05-06 22:03 38.78351 -9.13355 365 ft 17 kts 49°
2026-05-06 22:03 38.78354 -9.13275 365 ft 9 kts 142°
2026-05-06 22:04 38.78293 -9.13277 362 ft 9 kts 198°
2026-05-06 22:04 38.78237 -9.13306 361 ft 8 kts 205°
2026-05-06 22:04 38.78186 -9.13335 362 ft 8 kts 202°
2026-05-06 22:04 38.78111 -9.13374 360 ft 15 kts 201°
2026-05-06 22:05 38.77986 -9.13404 355 ft 23 kts 167°
2026-05-06 22:05 38.77803 -9.13357 351 ft 29 kts 167°
2026-05-06 22:05 38.77601 -9.13318 336 ft 28 kts 175°
2026-05-06 22:05 38.77438 -9.13281 338 ft 22 kts 169°
2026-05-06 22:06 38.77312 -9.13255 338 ft 15 kts 170°
2026-05-06 22:06 38.77214 -9.13232 337 ft 14 kts 166°
2026-05-06 22:06 38.77134 -9.13207 338 ft 10 kts 167°
2026-05-06 22:06 38.77107 -9.13163 335 ft 6 kts 82°
2026-05-06 22:07 38.77114 -9.13124 336 ft 3 kts 78°
2026-05-06 22:07 38.77115 -9.13115 337 ft 1 kts 78°
2026-05-06 22:07 38.77116 -9.13111 337 ft 0 kts 78°